Regional Weather Roundup
Issued by NWS

Home | Current Version | Previous Version | Graphics & Text | Print | Product List | Glossary Off
Versions: 1 2 3 4 5 6 7 8 9 10 11 12 13 14 15 16 17 18 19 20 21 22 23 24 25 26 27 28 29 30 31 32 33 34 35 36 37 38 39 40 41 42 43 44 45 46 47 48 49 50

000
ASUS43 KDMX 311610
RWRIA

WEATHER ROUNDUP FOR IOWA
NATIONAL WEATHER SERVICE DES MOINES IA
1100 AM CDT WED AUG 31 2016

NOTE: "FAIR" INDICATES FEW OR NO CLOUDS BELOW 12,000 FEET WITH NO
SIGNIFICANT WEATHER AND/OR OBSTRUCTIONS TO VISIBILITY.

* - THESE STATIONS ARE NOT NWS STATIONS...THUS NOT UNDER NWS
QUALITY CONTROL.  THEY ALSO DO NOT REPORT WEATHER SUCH
AS PRECIPITATION OR FOG.

IAZ001>003-012>014-020>022-031>034-043>046-311700-
   NORTHWEST IOWA

CITY           SKY/WX    TMP DP  RH WIND       PRES   REMARKS
CARROLL *      SUNNY     73  59  60 NE6       30.21S
CHEROKEE *     SUNNY     71  61  71 CALM      30.23S
DENISON *      SUNNY     72  61  68 VRB6      30.20S
LE MARS *      SUNNY     73  57  56 E5        30.24S
ORANGE CITY *  SUNNY     73  57  56 CALM      30.24S
SHELDON *      SUNNY     73  59  60 VRB3      30.23S
SIOUX CITY     SUNNY     74  58  57 VRB3      30.23R
SPENCER        SUNNY     75  56  51 NE7       30.24R
STORM LAKE *   SUNNY     72  59  64 VRB5      30.24R
$$

IAZ055>058-069>071-079>083-090>094-311700-
   SOUTHWEST IOWA

CITY           SKY/WX    TMP DP  RH WIND       PRES   REMARKS
ATLANTIC *     SUNNY     73  61  64 E9        30.20R
AUDUBON *      SUNNY     73  63  68 NE8       30.22R
CLARINDA *       N/A     73  64  73 MISG        N/A
COUNCIL BLFS * SUNNY     73  61  64 E9        30.20S
CRESTON *      MOSUNNY   73  63  68 NE10      30.20R
HARLAN  *      SUNNY     73  61  64 NE7       30.24R
LAMONI         CLOUDY    73  66  78 NE8       30.17R
RED OAK *      MOSUNNY   75  63  64 NE9       30.19S
SHENANDOAH *   CLOUDY    73  64  73 NE9       30.19S
$$

IAZ047>049-059>061-072>074-084-311700-
   CENTRAL IOWA

CITY           SKY/WX    TMP DP  RH WIND       PRES   REMARKS
AMES           SUNNY     74  62  66 NE6       30.19R
ANKENY *         N/A    N/A N/A N/A MISG        N/A
BOONE *        SUNNY     73  59  60 NE6       30.19S
CHARITON *       N/A     72  64  78 N8        30.16S
DES MOINES     MOSUNNY   77  58  51 NE9       30.17S
GRINNELL*      MOSUNNY   73  59  61 NE8       30.18S
KNOXVILLE *    MOSUNNY   72  61  68 NE7       30.15S
MARSHALLTOWN   SUNNY     73  60  63 NE8       30.18R
NEWTON *       MOSUNNY   73  61  64 NE9       30.17S
PERRY *          N/A     74  63  69 N7        30.20S
$$

IAZ004>006-015-016-023>025-035-036-311700-
   NORTH CENTRAL IOWA

CITY           SKY/WX    TMP DP  RH WIND       PRES   REMARKS
ALGONA *       SUNNY     72  59  64 N6        30.23R
ESTHERVILLE    SUNNY     72  59  63 NE8       30.23R
FORT DODGE *   SUNNY     72  61  68 N6        30.22S
MASON CITY     SUNNY     72  57  59 N6        30.22S
FOREST CITY *    N/A     72  57  60 N5        30.21S
WEBSTER CITY * SUNNY     73  61  64 NE8       30.18S
IOWA FALLS *     N/A     73  58  59 NE8       30.20S
$$

IAZ007>011-017>019-026>030-037>042-050>054-066-311700-
   NORTHEAST IOWA

CITY           SKY/WX    TMP DP  RH WIND       PRES   REMARKS
CEDAR RAPIDS   MOSUNNY   74  60  61 NW9       30.14R
CHARLES CITY * SUNNY     72  57  60 VRB6      30.21R
CLINTON *      PTSUNNY   73  67  81 NE9       30.13
DECORAH *      SUNNY     72  57  60 VRB6      30.18S
DUBUQUE        CLOUDY    66  62  87 E8        30.16R
MONTICELLO *   SUNNY     72  63  73 NE9       30.15R
OELWEIN *      SUNNY     72  59  64 N8        30.19R
WATERLOO       SUNNY     74  55  51 NE10      30.17R
$$

IAZ064-065-067-068-078-311700-
   EAST CENTRAL IOWA

CITY           SKY/WX    TMP DP  RH WIND       PRES   REMARKS
DAVENPORT      CLOUDY    74  66  76 VRB6      30.13R
IOWA CITY      MOSUNNY   75  62  64 N10       30.14S
MT. PLEASANT * CLOUDY    73  67  80 N8        30.13S
QUAD CITIES    CLOUDY    74  65  73 N6        30.11R
$$

IAZ062-063-075>077-085>089-095>099-311700-
   SOUTHEAST IOWA

CITY           SKY/WX    TMP DP  RH WIND       PRES   REMARKS
BURLINGTON     CLOUDY    74  68  81 N8        30.11R
FAIRFIELD *    CLOUDY    72  63  73 N7        30.14R
FORT MADISON * CLOUDY    73  68  83 N6        30.12S
KEOKUK *       CLOUDY    73  68  83 N6        30.11R
OSKALOOSA *      N/A     72  64  77 N6        30.15S
OTTUMWA        CLOUDY    74  64  71 VRB5      30.14S
WASHINGTON *   CLOUDY    72  64  78 N7        30.14S
$$

ABBREVIATIONS USED IN REMARKS
   TC - TEMPERATURES IN CELSIUS
  WCI - WIND CHILL INDEX
   HX - HEAT INDEX
  VSB - VISIBILITY
$$





USA.gov is the U.S. government's official web portal to all federal, state and local government web resources and services.